Temperature
17 18 18 19 19 19 18 17 16 17 17 17 17 17 18 18 18 17 17 17 17 17 17 16 16 16 16 16 16 15 15 15 15 15 15 15 14 14 14 14 14 14 13 13
17 18 18 18 19 19 19 18 17 17 17 17 18 18 18 18 17 17 17 17 17 17 16 16 16 16 16 15 15 15 15 15 15 15 15 14 14 14 14 14 14 13 13 13
16 17 17 17 18 18 18 18 18 17 17 17 16 17 17 17 17 17 17 17 17 17 16 16 16 16 15 15 15 15 15 14 14 14 14 14 14 14 14 13 13 13 13 13
15 16 17 17 18 18 18 18 17 17 17 17 17 17 18 18 17 17 17 17 17 17 16 16 16 15 15 15 15 15 14 14 14 14 14 14 14 14 13 13 13 13 13 12
14 15 16 17 18 18 18 17 17 17 17 17 17 17 16 17 17 17 17 17 17 17 16 16 16 15 15 15 15 14 14 14 14 14 14 14 14 13 13 13 13 13 12 12
14 15 16 16 18 19 18 16 17 17 16 16 16 14 15 17 17 17 17 17 16 16 16 16 15 15 15 15 14 14 14 14 13 13 13 13 13 13 13 13 12 12 12 12
14 14 15 16 18 18 16 16 17 18 17 17 16 16 17 17 17 17 16 16 16 16 15 15 15 14 14 14 14 14 13 13 13 13 13 13 13 12 12 12 12 12 12 12
13 13 14 17 17 16 16 17 18 18 18 17 17 17 17 17 16 16 16 16 15 15 15 15 14 14 14 14 14 13 13 13 13 12 12 12 12 12 12 12 12 12 11 11
13 14 15 17 17 18 18 17 17 17 17 17 17 16 16 16 16 16 15 15 15 15 14 14 14 14 14 13 13 13 13 12 12 12 12 12 11 11 11 11 11 11 11 11
13 14 15 17 17 17 17 17 17 17 17 17 17 16 16 16 15 15 15 15 14 14 14 14 14 13 13 13 13 13 12 12 12 12 11 11 11 11 11 11 11 11 11 11
12 13 15 16 16 16 16 16 16 16 16 16 16 16 16 15 15 15 14 14 14 14 14 13 13 13 13 13 12 12 12 12 11 11 11 11 11 11 10 10 10 10 10 10
12 14 13 14 15 16 15 15 16 16 15 15 15 15 15 15 14 14 14 14 13 13 13 13 13 13 12 12 12 12 12 11 11 11 11 10 10 10 10 10 10 10 10 10
15 15 15 15 14 15 15 15 15 15 15 15 15 15 14 14 14 14 13 13 13 13 13 12 12 12 12 12 12 11 11 11 11 11 10 10 10 10 9 9 9 9 9 9
14 14 14 14 14 14 14 14 14 14 14 14 14 14 14 14 13 13 13 13 13 12 12 12 12 11 11 11 11 11 11 11 10 10 10 10 10 9 9 9 9 9 9 9
14 14 13 13 13 13 13 13 13 14 14 13 14 13 13 13 13 13 12 12 12 12 12 11 11 11 11 11 11 10 10 10 10 10 10 9 9 9 9 9 8 8 8 8
13 13 13 13 13 13 13 13 13 13 13 13 13 13 13 12 12 12 12 12 11 11 11 11 11 11 10 10 10 10 10 10 9 9 9 9 9 9 8 8 8 8 8 8
12 12 12 12 12 12 13 13 13 13 13 12 12 12 12 12 12 11 11 11 11 11 11 11 10 10 10 10 10 10 9 9 9 9 9 9 8 8 8 8 8 8 8 8
12 12 12 12 12 12 12 12 12 12 12 12 12 12 11 11 11 11 11 11 11 10 10 10 10 10 10 10 9 9 9 9 9 9 8 8 8 8 8 8 7 7 7 7
12 12 12 12 12 12 12 11 11 11 11 11 11 11 11 11 11 10 10 10 10 10 10 10 10 9 9 9 9 9 9 9 8 8 8 8 8 8 7 7 7 7 7 7
11 11 11 11 11 11 11 11 11 11 11 11 11 11 11 10 10 10 10 10 10 10 10 9 9 9 9 9 9 8 8 8 8 8 8 8 7 7 7 7 7 7 6 6
10 10 10 10 10 10 10 10 10 10 10 10 10 10 10 10 10 9 9 9 9 9 9 9 9 9 8 8 8 8 8 8 8 7 7 7 7 7 6 6 6 6 6 6
9 9 9 9 9 9 9 10 10 10 10 10 10 10 9 9 9 9 9 9 9 8 8 8 8 8 8 8 8 8 7 7 7 7 7 7 7 6 6 6 6 6 6 6
9 9 9 9 9 9 9 9 9 9 9 9 9 9 9 9 8 8 8 8 8 8 8 8 8 7 7 7 7 7 7 7 7 6 6 6 6 6 6 6 5 5 5 5
8 8 8 8 8 8 8 8 8 8 8 8 8 8 8 8 8 8 8 8 8 7 7 7 7 7 7 7 7 7 6 6 6 6 6 6 6 6 5 5 5 5 5 5
7 7 7 7 7 7 7 7 7 7 7 7 7 7 7 7 7 7 7 7 7 7 7 7 7 6 6 6 6 6 6 6 6 6 5 5 5 5 5 5 5 5 5 5
6 7 7 7 7 7 7 7 7 7 6 7 7 7 7 7 7 7 7 7 6 6 6 6 6 6 6 6 6 6 5 5 5 5 5 5 5 5 5 5 4 4 4 4
6 6 6 6 6 6 6 6 6 6 6 6 6 6 6 6 6 6 6 6 6 6 6 5 5 5 5 5 5 5 5 5 5 5 5 4 4 4 4 4 4 4 4 4
Wind_Speed
5 4 2 3 5 4 5 6 6 6 6 8 7 8 7 6 5 5 5 6 6 6 5 5 4 4 3 3 3 3 3 3 3 3 3 3 3 3 3 4 4 4 4 3
3 3 2 4 6 6 6 6 6 5 6 5 4 4 4 6 6 5 5 6 6 6 6 6 6 5 4 3 3 3 3 3 2 2 2 2 3 3 3 3 3 3 4 3
3 4 3 4 6 5 4 4 5 6 6 2 2 3 6 7 8 7 7 6 6 6 6 6 6 7 6 4 3 3 3 2 2 3 3 2 2 3 3 3 3 3 4 4
1 2 3 7 4 2 3 2 2 2 2 4 5 5 4 5 7 7 6 6 6 5 5 4 4 4 4 3 4 3 3 2 2 3 3 2 2 2 3 3 3 3 4 4
2 2 5 5 3 1 2 2 1 1 1 2 2 4 1 2 5 6 6 5 5 5 5 4 4 5 5 4 4 3 3 3 3 3 3 3 3 3 2 2 3 3 3 4
3 3 5 6 5 2 3 2 4 2 3 2 4 2 4 3 3 3 3 3 4 4 3 4 4 4 5 4 4 4 4 4 4 3 4 5 5 4 2 3 3 3 3 4
4 5 6 6 4 3 3 6 4 2 3 4 4 6 5 3 3 3 4 3 4 4 4 4 4 5 4 4 5 5 4 3 3 4 4 4 4 3 3 3 3 3 3 3
4 4 7 4 1 3 6 3 2 2 3 4 3 2 3 4 4 4 3 3 3 3 2 3 4 5 5 5 6 4 3 3 4 3 3 3 3 3 3 3 3 3 3 3
6 6 5 2 3 3 3 2 2 2 2 4 3 2 3 4 4 4 4 3 3 3 2 2 3 5 6 6 4 3 3 3 4 3 3 3 4 4 3 3 4 4 3 4
2 3 3 2 2 2 0 1 2 2 3 4 3 3 3 4 4 3 3 3 3 3 3 2 3 4 5 4 4 4 4 4 3 3 3 3 3 4 4 5 5 5 5 5
3 4 3 4 3 2 2 2 2 1 2 4 4 3 4 4 4 4 4 3 3 4 4 4 3 3 3 4 4 4 4 4 3 3 3 3 3 4 5 6 6 6 6 6
6 6 4 6 6 4 3 3 3 2 2 2 3 4 4 4 4 4 4 3 3 4 4 4 3 3 3 3 4 5 3 3 3 3 2 2 3 2 4 4 5 6 5 5
7 6 5 6 5 4 4 4 4 3 4 3 3 4 4 4 4 4 4 4 5 5 5 4 3 3 3 3 4 4 4 4 3 3 2 3 3 3 3 3 3 4 5 5
4 2 4 4 5 5 5 5 5 4 4 4 4 3 4 3 3 4 5 5 5 4 4 3 3 4 4 3 4 4 4 5 4 3 3 3 3 3 3 3 3 3 4 4
6 5 6 6 5 5 5 4 4 3 3 3 3 3 4 4 4 5 4 4 3 3 3 3 3 4 3 4 4 4 4 3 3 3 3 3 3 3 3 3 3 3 2 3
5 4 3 3 5 6 5 4 4 5 4 3 4 4 5 5 4 4 4 3 4 4 4 4 4 4 3 4 4 4 4 5 4 3 3 3 3 3 3 3 4 3 3 3
3 4 5 5 5 6 6 6 6 6 5 4 5 4 3 2 3 3 4 4 4 5 5 5 5 4 3 4 4 4 3 4 4 3 3 3 3 4 4 4 4 4 4 4
5 5 5 5 5 6 6 5 4 5 4 5 4 3 3 4 4 5 4 3 2 2 4 5 5 4 4 4 4 4 3 3 4 4 4 4 3 4 3 4 5 5 4 3
2 3 4 4 5 4 4 4 5 4 4 4 3 4 4 5 4 4 3 3 3 4 5 5 5 4 4 5 4 3 4 4 4 3 4 4 4 3 3 4 4 4 4 3
3 3 4 4 4 3 4 4 4 4 4 3 3 3 3 4 3 3 3 3 4 5 5 4 4 4 4 5 5 3 3 4 4 4 3 4 4 4 4 4 4 4 4 4
4 4 4 4 5 4 3 3 3 3 4 3 3 4 3 3 3 3 2 3 4 3 3 4 3 3 4 4 4 3 4 4 3 4 4 4 4 4 4 4 4 4 4 4
4 4 4 4 4 4 4 3 2 2 1 1 1 1 1 2 2 2 3 4 4 4 2 3 3 4 4 4 3 4 4 4 4 3 3 3 4 3 4 4 4 4 4 4
3 4 4 4 4 4 4 3 2 1 1 1 1 1 2 2 2 2 3 3 2 4 3 3 4 5 5 3 3 3 4 4 4 3 4 4 4 4 4 5 4 4 4 5
4 4 5 4 3 2 3 3 2 2 1 1 1 1 1 1 2 2 2 3 3 4 3 4 5 5 4 3 3 3 3 3 4 4 3 3 3 3 4 4 4 4 5 5
4 4 4 4 3 3 3 2 2 3 2 2 2 2 2 1 2 2 2 2 3 3 2 4 5 5 3 2 3 3 3 3 3 3 3 3 3 4 4 4 4 5 5 5
4 4 3 3 2 2 1 0 1 1 1 1 2 2 2 1 1 1 1 2 2 2 2 2 2 2 2 2 3 3 3 3 3 3 3 4 4 4 4 4 5 5 5 4
4 3 2 2 2 2 1 0 1 1 2 1 2 3 2 1 1 1 1 1 1 1 1 1 1 2 2 2 2 2 2 2 2 3 3 3 3 3 4 4 4 4 4 4
Wind_Direction
234 236 224 252 259 229 201 196 199 222 222 238 218 204 203 195 177 165 163 166 171 175 177 171 165 166 172 175 161 151 152 164 189 194 179 176 176 174 169 166 169 164 149 143
295 274 280 278 268 241 226 216 217 230 252 247 211 183 189 188 173 171 173 176 179 174 175 181 177 172 174 174 168 153 154 178 194 176 165 172 182 173 163 166 162 152 152 160
270 296 355 278 249 222 210 216 196 220 240 187 145 177 191 188 183 181 182 181 179 182 185 189 188 179 181 180 159 144 159 178 183 180 180 190 182 160 169 175 166 169 175 176
234 13 244 248 264 185 178 235 221 214 214 176 185 196 194 178 177 186 187 184 187 187 185 185 180 180 176 159 156 161 168 183 186 182 187 187 159 173 191 178 177 186 192 187
154 221 272 290 300 200 166 288 296 175 181 174 118 73 9 212 176 182 190 189 187 186 181 175 173 171 156 159 166 169 186 201 202 191 197 196 197 201 196 182 191 201 196 193
157 191 236 249 278 299 100 266 296 167 167 152 108 116 252 245 191 169 159 156 157 155 145 156 177 155 151 169 174 195 205 209 205 198 200 208 214 212 206 197 204 198 211 211
190 217 257 262 286 54 140 236 269 205 181 163 181 209 220 203 182 164 153 144 141 143 158 184 177 155 163 183 204 210 207 208 207 207 213 219 215 211 205 200 199 207 219 234
171 197 249 275 87 171 218 230 214 195 181 178 196 197 171 167 172 167 157 147 144 149 186 200 176 169 183 209 220 210 200 207 215 219 223 224 205 206 204 193 198 213 222 245
190 214 245 249 195 230 190 177 198 189 200 166 164 185 179 176 176 184 177 173 168 168 188 207 194 184 196 220 214 201 202 213 221 223 226 215 202 201 207 205 209 218 217 228
224 265 276 306 337 344 320 237 218 189 176 162 178 192 189 187 189 194 192 186 184 174 188 222 218 207 211 211 196 191 203 217 222 218 225 227 215 204 208 213 217 219 224 231
255 271 320 323 320 309 329 338 335 325 202 195 185 200 206 207 208 208 212 213 197 193 206 226 228 229 224 205 184 188 202 211 221 225 222 231 230 221 220 226 219 216 222 221
237 238 223 259 278 293 308 307 293 290 287 249 206 209 213 218 221 216 213 213 211 213 218 230 227 230 228 203 183 180 198 210 212 212 221 230 234 260 258 246 247 235 233 232
237 248 239 255 269 281 286 288 278 258 245 245 244 221 213 220 224 216 213 210 212 217 221 226 222 228 224 203 186 189 200 206 206 207 217 230 224 226 265 297 281 249 244 239
250 251 272 266 263 274 280 281 271 263 255 239 231 226 212 214 221 214 218 220 219 216 216 212 210 228 225 200 186 197 204 205 204 209 216 221 223 225 225 237 266 274 266 256
263 252 248 262 272 277 276 276 277 275 276 273 245 222 211 209 218 226 230 225 208 209 213 208 212 232 217 196 196 203 203 207 211 212 213 213 217 220 224 234 241 249 266 274
270 276 265 269 276 281 282 271 258 255 253 255 249 239 229 219 221 226 227 213 201 214 220 215 225 236 211 192 198 208 210 211 207 209 209 212 218 220 223 229 232 231 236 242
267 278 283 285 281 278 271 262 251 246 242 239 239 237 230 211 213 228 235 227 213 215 215 211 227 231 208 198 198 206 208 212 210 215 210 212 217 222 222 225 229 231 236 233
234 242 253 254 261 273 279 275 261 250 238 235 232 225 214 206 214 226 230 223 215 238 239 230 226 214 206 207 204 203 201 209 213 215 215 216 219 221 225 230 230 231 241 239
285 284 286 275 265 257 263 267 267 260 252 232 219 222 223 219 216 221 219 204 209 235 250 239 222 207 209 213 203 196 198 209 214 215 214 220 218 222 229 234 233 230 231 229
322 320 318 313 300 278 269 270 267 266 260 237 222 220 224 225 209 204 207 225 233 235 236 238 223 214 214 209 198 195 201 208 211 213 214 215 217 225 236 240 238 232 233 231
325 325 326 322 315 309 293 278 264 263 264 245 213 212 219 223 207 196 203 248 267 251 232 232 225 224 218 211 203 202 206 208 209 212 213 217 222 228 239 245 245 238 236 237
325 326 326 323 323 323 317 309 296 288 288 274 223 198 198 214 215 222 231 235 243 249 246 233 227 228 227 218 205 206 210 212 215 214 213 217 222 228 239 250 250 247 244 241
315 314 319 317 306 303 315 327 330 324 299 272 246 225 220 230 216 209 262 266 242 247 249 236 240 239 235 209 200 203 208 214 217 218 218 219 226 233 239 246 251 253 251 248
313 315 315 316 326 337 330 320 319 318 314 305 279 255 224 242 300 284 256 269 282 273 255 246 247 246 237 208 201 207 213 218 219 219 218 223 230 237 243 245 249 252 252 252
303 307 314 328 328 305 292 312 349 359 1 348 334 326 312 262 254 278 282 272 283 298 280 267 264 259 235 214 212 213 217 224 224 217 213 220 233 243 249 251 251 253 253 253
296 300 294 285 282 279 277 336 2 332 333 336 328 324 327 323 305 299 305 304 292 298 290 276 269 261 242 229 228 226 226 236 238 229 225 228 234 241 249 255 258 257 256 256
308 308 309 318 318 306 289 252 252 283 280 269 298 305 300 299 306 313 310 319 323 314 307 295 277 255 244 237 237 236 237 240 240 239 235 235 239 248 255 257 263 265 262 257
Height
1528 1524 1523 1524 1522 1521 1525 1529 1534 1529 1525 1519 1516 1516 1516 1517 1518 1519 1520 1521 1522 1523 1524 1525 1526 1527 1529 1530 1531 1531 1532 1533 1533 1534 1535 1535 1536 1536 1537 1537 1538 1538 1539 1539
1528 1522 1522 1522 1519 1518 1518 1520 1522 1521 1520 1512 1512 1513 1514 1516 1517 1517 1518 1519 1520 1521 1522 1523 1524 1525 1526 1528 1528 1529 1530 1530 1531 1532 1532 1533 1533 1534 1534 1535 1536 1536 1536 1537
1535 1526 1524 1528 1518 1515 1515 1514 1515 1519 1516 1511 1512 1512 1512 1513 1514 1515 1516 1517 1518 1519 1520 1521 1522 1523 1524 1525 1526 1527 1528 1528 1529 1529 1529 1530 1531 1531 1532 1532 1533 1533 1534 1534
1536 1531 1536 1524 1510 1509 1511 1512 1511 1510 1510 1510 1510 1510 1511 1511 1512 1513 1514 1515 1516 1517 1518 1519 1520 1521 1522 1523 1524 1525 1525 1526 1526 1526 1527 1527 1528 1528 1529 1530 1530 1530 1531 1531
1538 1537 1531 1518 1511 1510 1512 1514 1510 1510 1509 1509 1510 1510 1511 1511 1511 1511 1512 1513 1514 1515 1516 1517 1518 1519 1520 1520 1521 1522 1522 1523 1523 1524 1524 1524 1525 1525 1526 1527 1527 1527 1527 1528
1535 1535 1535 1520 1508 1506 1510 1517 1510 1508 1508 1508 1509 1514 1512 1510 1510 1511 1511 1512 1512 1513 1514 1515 1516 1517 1517 1518 1518 1519 1519 1520 1520 1521 1521 1521 1522 1522 1523 1523 1524 1524 1524 1524
1533 1534 1526 1512 1507 1507 1520 1518 1508 1507 1506 1507 1508 1508 1508 1508 1508 1509 1509 1510 1510 1511 1512 1512 1513 1514 1515 1515 1515 1516 1517 1517 1517 1517 1518 1518 1518 1519 1519 1520 1520 1520 1520 1520
1531 1534 1528 1507 1507 1511 1511 1506 1506 1505 1505 1505 1505 1505 1505 1505 1505 1505 1506 1507 1508 1509 1509 1510 1511 1512 1512 1512 1512 1513 1513 1513 1513 1514 1514 1514 1514 1515 1515 1516 1516 1516 1516 1516
1521 1520 1509 1506 1506 1506 1505 1504 1504 1504 1503 1503 1503 1503 1503 1502 1503 1503 1504 1505 1506 1506 1507 1507 1508 1509 1508 1508 1509 1509 1509 1509 1509 1510 1510 1510 1510 1510 1511 1511 1511 1511 1511 1511
1513 1510 1506 1505 1505 1504 1504 1503 1503 1502 1502 1501 1501 1501 1500 1501 1501 1501 1501 1502 1503 1503 1503 1504 1504 1505 1505 1505 1505 1505 1505 1505 1505 1505 1505 1506 1506 1506 1506 1506 1506 1506 1506 1506
1511 1507 1505 1504 1503 1503 1502 1501 1501 1500 1500 1499 1498 1498 1498 1498 1498 1498 1498 1499 1499 1500 1500 1500 1500 1500 1501 1501 1501 1501 1501 1501 1501 1501 1501 1501 1501 1501 1501 1501 1501 1501 1501 1501
1509 1504 1505 1503 1502 1501 1500 1498 1498 1497 1496 1496 1495 1495 1494 1494 1494 1495 1495 1495 1496 1496 1496 1496 1496 1496 1496 1497 1497 1497 1497 1497 1497 1497 1497 1497 1496 1496 1496 1497 1497 1497 1497 1497
1501 1500 1500 1499 1499 1498 1497 1496 1495 1494 1493 1492 1491 1491 1491 1490 1490 1490 1491 1491 1491 1491 1491 1492 1492 1492 1492 1492 1492 1492 1492 1492 1492 1492 1492 1492 1492 1492 1491 1491 1491 1492 1492 1492
1498 1497 1496 1495 1494 1494 1493 1492 1491 1490 1489 1488 1487 1487 1486 1486 1486 1486 1486 1486 1487 1487 1487 1487 1487 1487 1488 1488 1488 1488 1488 1488 1488 1488 1488 1488 1487 1487 1487 1486 1486 1486 1487 1487
1493 1493 1492 1490 1490 1489 1489 1488 1487 1485 1484 1483 1483 1482 1482 1481 1481 1481 1482 1482 1482 1482 1482 1483 1482 1482 1483 1483 1483 1483 1483 1483 1483 1483 1483 1483 1483 1483 1482 1482 1482 1482 1481 1482
1488 1488 1487 1486 1485 1485 1484 1483 1482 1481 1480 1479 1479 1478 1477 1477 1476 1477 1477 1478 1477 1477 1478 1478 1478 1478 1478 1479 1478 1478 1478 1478 1479 1478 1478 1478 1478 1478 1477 1477 1477 1477 1477 1477
1485 1483 1482 1481 1481 1480 1479 1478 1477 1476 1475 1474 1474 1474 1473 1473 1472 1472 1473 1473 1473 1473 1473 1474 1474 1474 1474 1474 1474 1473 1473 1473 1473 1473 1473 1473 1473 1473 1473 1472 1472 1472 1472 1472
1480 1480 1479 1478 1477 1475 1474 1474 1473 1472 1471 1470 1470 1469 1469 1468 1468 1468 1468 1468 1469 1469 1469 1469 1469 1469 1469 1469 1469 1468 1468 1468 1468 1468 1468 1468 1468 1468 1468 1468 1467 1467 1467 1467
1476 1475 1474 1473 1473 1472 1470 1469 1468 1468 1467 1466 1465 1465 1464 1464 1464 1464 1464 1464 1464 1464 1464 1465 1465 1464 1464 1464 1464 1464 1463 1463 1463 1463 1463 1463 1464 1463 1463 1463 1463 1462 1462 1462
1473 1472 1470 1469 1468 1467 1466 1465 1464 1463 1462 1461 1461 1460 1460 1460 1460 1460 1460 1460 1460 1460 1460 1460 1460 1459 1459 1459 1459 1459 1459 1458 1458 1458 1458 1458 1458 1458 1458 1458 1458 1458 1457 1457
1470 1468 1467 1465 1464 1463 1461 1460 1460 1459 1458 1457 1456 1456 1455 1455 1456 1456 1455 1455 1455 1456 1455 1455 1455 1455 1454 1454 1455 1454 1454 1454 1454 1453 1453 1454 1454 1453 1453 1453 1453 1453 1453 1452
1467 1465 1464 1462 1460 1459 1458 1457 1455 1454 1453 1453 1452 1451 1451 1451 1451 1451 1452 1452 1451 1451 1451 1450 1450 1450 1450 1450 1450 1449 1449 1449 1449 1449 1449 1449 1449 1448 1448 1448 1448 1448 1448 1447
1465 1463 1461 1459 1457 1456 1454 1453 1452 1451 1449 1448 1448 1447 1447 1447 1447 1447 1447 1447 1447 1447 1446 1446 1446 1445 1445 1445 1445 1445 1444 1444 1444 1444 1444 1444 1444 1444 1444 1443 1443 1443 1443 1442
1461 1459 1458 1456 1454 1452 1451 1449 1448 1448 1447 1446 1445 1445 1444 1444 1443 1444 1443 1443 1442 1442 1441 1441 1441 1441 1440 1440 1440 1440 1439 1439 1439 1439 1439 1439 1439 1439 1439 1438 1438 1437 1437 1437
1458 1456 1455 1453 1451 1449 1448 1447 1445 1444 1444 1443 1443 1442 1442 1441 1441 1440 1439 1439 1438 1438 1437 1436 1436 1436 1435 1435 1435 1435 1435 1435 1435 1435 1434 1434 1434 1434 1433 1433 1433 1432 1432 1431
1454 1453 1451 1450 1449 1447 1446 1444 1443 1442 1441 1440 1439 1439 1438 1438 1437 1437 1436 1435 1434 1434 1433 1432 1432 1431 1431 1430 1430 1430 1430 1430 1430 1430 1429 1429 1429 1429 1428 1428 1427 1427 1426 1426
1451 1449 1448 1447 1446 1444 1443 1442 1440 1439 1438 1437 1436 1436 1435 1434 1433 1433 1432 1431 1431 1430 1429 1428 1428 1427 1426 1426 1425 1425 1425 1425 1425 1424 1424 1424 1424 1424 1423 1423 1422 1421 1421 1420